Dawson, IA

6:06 PM CST on February 08, 2016 (GMT -0600)
Perry Municipal

Weather History for KPRO - April, 2014

Change the Weather History Date:

Wednesday, April 2, 2014

  Actual Average Record
Temperature  
Mean Temperature 40 °F -  
Max Temperature 48 °F 51 °F 87 °F (2012)
Min Temperature 32 °F 32 °F 18 °F (1992)
Degree Days  
Heating Degree Days 25    
Moisture  
Dew Point 29 °F    
Average Humidity 66    
Maximum Humidity 86    
Minimum Humidity 45    
Precipitation  
Precipitation 0.00 in - - ()
Sea Level Pressure  
Sea Level Pressure 29.99 in    
Wind  
Wind Speed 11 mph (ENE)    
Max Wind Speed 22 mph    
Max Gust Speed 31 mph    
Visibility 10 miles    
Events Rain    
Averages and records for this station are not official NWS values.
T = Trace of Precipitation, MM = Missing Value Source: NWS Daily Summary

Daily Weather History Graph

Daily Weather History Graph

Search for Another Location

Airport or City:

Trip Planner

Search our weather history database for the weather conditions in past years. The results will help you decide how hot, cold, wet, or windy it might be!

Date:

Astronomy

Apr. 02, 2014 Rise Set
Actual Time 6:57 AM CDT 7:43 PM CDT
Civil Twilight 6:29 AM CDT 8:11 PM CDT
Nautical Twilight 5:56 AM CDT 8:44 PM CDT
Astronomical Twilight 5:21 AM CDT 9:19 PM CDT
Moon 8:40 AM CDT (4/2) 11:10 PM CDT (4/2)
Length of Visible Light 13h 41m
Length of Day
12h 45m
Waxing Crescent, 10% of the Moon is Illuminated
Apr 2
Waxing Crescent
Apr 7
First Quarter
Apr 15
Full
Apr 22
Last Quarter
Apr 29
New

Hourly Weather History & Observations

Time (CDT) Temp. Windchill Dew Point Humidity Pressure Visibility Wind Dir Wind Speed Gust Speed Precip Events Conditions
12:15 AM 34.9 °F 30.8 °F 26.1 °F 70% 30.09 in 10.0 mi NW 4.6 mph - N/A   Overcast
12:35 AM 35.2 °F 30.3 °F 25.2 °F 67% 30.09 in 10.0 mi NW 5.8 mph - N/A   Overcast
12:55 AM 34.7 °F 31.8 °F 25.5 °F 69% 30.09 in 10.0 mi NW 3.5 mph - N/A   Overcast
1:15 AM 34.3 °F 30.2 °F 25.3 °F 70% 30.09 in 10.0 mi NW 4.6 mph - N/A   Overcast
1:35 AM 33.8 °F 30.8 °F 25.2 °F 71% 30.09 in 10.0 mi NNW 3.5 mph - N/A   Overcast
1:55 AM 34.2 °F 28.2 °F 24.3 °F 67% 30.08 in 10.0 mi North 6.9 mph - N/A   Mostly Cloudy
2:15 AM 33.4 °F 27.3 °F 24.3 °F 69% 30.08 in 10.0 mi North 6.9 mph - N/A   Scattered Clouds
2:35 AM 33.3 °F 27.1 °F 24.8 °F 71% 30.08 in 10.0 mi North 6.9 mph - N/A   Clear
2:55 AM 32.9 °F 25.9 °F 25.3 °F 74% 30.07 in 10.0 mi NNE 8.1 mph - N/A   Clear
3:15 AM 33.1 °F 25.5 °F 26.2 °F 76% 30.07 in 10.0 mi NNE 9.2 mph - N/A   Clear
3:35 AM 32.9 °F 25.3 °F 26.8 °F 78% 30.05 in 10.0 mi NNE 9.2 mph - N/A   Clear
3:55 AM 33.1 °F 25.5 °F 27.9 °F 81% 30.06 in 10.0 mi NE 9.2 mph - N/A   Clear
4:15 AM 33.6 °F 26.2 °F 28.8 °F 82% 30.07 in 10.0 mi NE 9.2 mph - N/A   Clear
4:35 AM 33.8 °F 25.8 °F 28.8 °F 82% 30.07 in 10.0 mi NE 10.4 mph - N/A   Clear
4:55 AM 33.4 °F 26.6 °F 28.4 °F 82% 30.08 in 10.0 mi NNE 8.1 mph - N/A   Scattered Clouds
5:15 AM 32.9 °F 25.9 °F 28.4 °F 84% 30.09 in 10.0 mi NNE 8.1 mph - N/A   Scattered Clouds
5:35 AM 32.9 °F 27.5 °F 28.4 °F 84% 30.08 in 10.0 mi NE 5.8 mph - N/A   Clear
5:55 AM 32.0 °F 24.8 °F 28.2 °F 86% 30.08 in 10.0 mi NE 8.1 mph - N/A   Clear
6:15 AM 32.0 °F 24.8 °F 28.0 °F 85% 30.08 in 10.0 mi NE 8.1 mph - N/A   Clear
7:35 AM 32.0 °F 22.5 °F 28.0 °F 85% 30.07 in 7.0 mi ENE 12.7 mph - N/A   Scattered Clouds
7:55 AM 32.0 °F 22.5 °F 28.0 °F 85% 30.08 in 7.0 mi ENE 12.7 mph - N/A   Scattered Clouds
8:15 AM 32.2 °F 21.8 °F 28.2 °F 85% 30.07 in 7.0 mi ENE 15.0 mph 20.7 mph N/A   Scattered Clouds
8:35 AM 32.9 °F 24.7 °F 28.0 °F 82% 30.08 in 10.0 mi ENE 10.4 mph - N/A   Clear
8:55 AM 33.1 °F 22.6 °F 27.7 °F 81% 30.06 in 10.0 mi ENE 16.1 mph 21.9 mph N/A   Clear
9:15 AM 33.8 °F 25.8 °F 27.7 °F 78% 30.07 in 10.0 mi ENE 10.4 mph - N/A   Clear
9:35 AM 34.5 °F 26.2 °F 27.7 °F 76% 30.06 in 10.0 mi East 11.5 mph - N/A   Clear
9:55 AM 36.0 °F 26.7 °F 27.9 °F 72% 30.06 in 10.0 mi ENE 15.0 mph 20.7 mph N/A   Clear
10:15 AM 36.5 °F 27.4 °F 27.7 °F 70% 30.05 in 10.0 mi ENE 15.0 mph - N/A   Clear
10:35 AM 37.2 °F 28.7 °F 27.5 °F 68% 30.05 in 10.0 mi East 13.8 mph 19.6 mph N/A   Clear
10:55 AM 38.7 °F 30.5 °F 27.5 °F 64% 30.05 in 10.0 mi East 13.8 mph - N/A   Clear
11:35 AM 43.0 °F 36.8 °F 28.8 °F 57% 30.04 in 10.0 mi East 11.5 mph 18.4 mph N/A   Clear
11:55 AM 43.9 °F 37.5 °F 28.4 °F 55% 30.03 in 10.0 mi ENE 12.7 mph 19.6 mph N/A   Scattered Clouds
12:15 PM 45.0 °F 38.5 °F 28.4 °F 52% 30.02 in 10.0 mi East 13.8 mph 20.7 mph N/A   Scattered Clouds
12:55 PM 46.4 °F 40.1 °F 28.4 °F 50% 30.02 in 10.0 mi East 15.0 mph 21.9 mph N/A   Mostly Cloudy
1:15 PM 46.9 °F - 28.0 °F 48% 30.01 in 10.0 mi East 17.3 mph 21.9 mph N/A   Overcast
1:35 PM 47.8 °F - 27.9 °F 46% 29.99 in 10.0 mi East 18.4 mph 23.0 mph N/A   Overcast
1:55 PM 48.0 °F - 27.7 °F 45% 29.99 in 10.0 mi East 17.3 mph 23.0 mph N/A   Overcast
2:35 PM 48.2 °F - 27.7 °F 45% 29.98 in 10.0 mi East 17.3 mph 21.9 mph N/A   Overcast
2:55 PM 48.2 °F - 28.4 °F 46% 29.96 in 10.0 mi East 17.3 mph - N/A   Overcast
3:15 PM 48.2 °F - 27.9 °F 45% 29.94 in 10.0 mi East 19.6 mph - N/A   Overcast
3:35 PM 48.2 °F - 28.0 °F 46% 29.94 in 10.0 mi East 21.9 mph 25.3 mph N/A   Overcast
3:55 PM 48.2 °F - 28.9 °F 47% 29.93 in 10.0 mi East 16.1 mph 24.2 mph N/A   Overcast
4:15 PM 48.2 °F - 28.9 °F 47% 29.93 in 10.0 mi East 18.4 mph 21.9 mph N/A   Overcast
4:35 PM 48.4 °F - 29.8 °F 49% 29.92 in 10.0 mi East 15.0 mph 24.2 mph N/A   Overcast
4:55 PM 48.7 °F - 30.0 °F 48% 29.92 in 10.0 mi East 13.8 mph 19.6 mph N/A   Overcast
5:15 PM 48.6 °F - 30.2 °F 49% 29.91 in 10.0 mi East 16.1 mph - N/A   Overcast
5:35 PM 48.4 °F - 30.2 °F 49% 29.91 in 10.0 mi East 12.7 mph - N/A   Overcast
5:55 PM 47.7 °F - 31.6 °F 54% 29.90 in 10.0 mi East 13.8 mph 21.9 mph N/A   Overcast
6:15 PM 47.7 °F - 31.6 °F 54% 29.90 in 10.0 mi East 21.9 mph 31.1 mph N/A   Overcast
6:35 PM 47.1 °F - 32.5 °F 57% 29.89 in 10.0 mi East 21.9 mph 28.8 mph N/A   Overcast
6:55 PM 46.6 °F - 33.8 °F 61% 29.89 in 10.0 mi East 20.7 mph - N/A   Overcast
7:15 PM 46.4 °F 39.5 °F 34.0 °F 62% 29.89 in 10.0 mi East 17.3 mph 21.9 mph N/A   Overcast
7:35 PM 45.5 °F 38.1 °F 35.4 °F 68% 29.89 in 10.0 mi East 18.4 mph - N/A Rain Light Rain
7:55 PM 45.5 °F 38.6 °F 34.5 °F 65% 29.87 in 10.0 mi East 16.1 mph - N/A Rain Light Rain
8:15 PM 45.9 °F 38.8 °F 33.4 °F 62% 29.87 in 10.0 mi East 17.3 mph - N/A   Overcast
8:35 PM 45.7 °F 38.6 °F 32.5 °F 60% 29.87 in 10.0 mi East 17.3 mph - N/A   Overcast
8:55 PM 45.0 °F 37.1 °F 33.1 °F 63% 29.87 in 10.0 mi East 19.6 mph 24.2 mph N/A   Overcast
9:15 PM 45.0 °F 37.9 °F 32.9 °F 63% 29.88 in 10.0 mi ESE 16.1 mph - N/A   Overcast
9:35 PM 45.1 °F 37.9 °F 32.5 °F 61% 29.88 in 10.0 mi ESE 17.3 mph - N/A   Overcast
9:55 PM 45.0 °F 37.9 °F 33.6 °F 64% 29.89 in 10.0 mi ESE 16.1 mph 24.2 mph N/A   Overcast
10:15 PM 45.1 °F 37.1 °F 34.7 °F 67% 29.88 in 10.0 mi ESE 20.7 mph 26.5 mph N/A   Overcast
10:35 PM 44.4 °F 36.4 °F 35.8 °F 72% 29.89 in 7.0 mi ESE 19.6 mph - N/A   Overcast
10:55 PM 43.9 °F 37.2 °F 36.1 °F 74% 29.88 in 7.0 mi ESE 13.8 mph - N/A   Overcast
11:15 PM 44.1 °F 36.5 °F 36.3 °F 74% 29.87 in 7.0 mi ESE 17.3 mph 23.0 mph N/A   Overcast
11:35 PM 43.7 °F 36.9 °F 36.3 °F 75% 29.86 in 7.0 mi East 13.8 mph - N/A   Overcast
11:55 PM 43.7 °F 36.9 °F 36.3 °F 75% 29.84 in 7.0 mi East 13.8 mph - N/A   Overcast